Probability
0 0 0 0 0 0 0 0 0 0 0 0 0 0 0 0 0 0 0 0 0 0 0 0 0 0 0 0 0 0 0 0 0 0 0 0 0 0 0 0 0 0 0
0 0 0 0 0 0 0 0 0 0 0 0 0 0 0 0 0 0 0 0 0 0 0 0 0 0 0 0 0 0 0 0 0 0 0 0 0 0 0 0 0 0 0
0 0 0 0 0 0 0 0 0 0 0 0 0 0 0 0 0 0 0 0 0 0 0 0 0 0 0 0 0 0 0 0 0 0 0 0 0 0 0 0 0 0 0
0 0 0 0 0 0 0 0 0 0 0 0 0 0 0 0 0 0 0 0 0 0 0 0 0 0 0 0 0 0 0 0 0 0 0 0 0 0 0 0 0 0 0
0 0 0 0 0 0 0 0 0 0 0 0 0 0 0 0 0 0 0 0 0 0 0 0 0 0 0 0 0 0 0 0 0 0 0 0 0 0 0 0 0 0 0
0 0 0 0 0 0 0 0 0 0 0 0 0 0 0 0 0 0 0 0 0 0 0 0 0 0 0 0 0 0 0 0 0 0 0 0 0 0 0 0 0 0 0
0 0 0 0 0 0 0 0 0 0 0 0 0 0 0 0 0 0 0 0 0 0 0 0 0 0 0 0 0 0 0 0 0 0 0 0 0 0 0 0 0 0 0
0 0 0 0 0 0 0 0 0 0 0 0 0 0 0 0 0 0 0 0 0 0 0 0 0 0 0 0 0 0 0 0 0 0 0 0 0 0 0 0 0 0 0
0 0 0 0 0 0 0 0 0 0 0 0 0 0 0 0 0 0 0 0 0 0 0 0 0 0 0 0 0 0 0 0 0 0 0 0 0 0 0 0 0 0 0
0 0 0 0 0 0 0 0 0 0 0 0 0 0 0 0 0 0 0 0 0 0 0 0 0 0 0 0 0 0 0 0 0 0 0 0 0 0 0 0 0 0 0
0 0 0 0 0 0 0 0 0 0 0 0 0 0 0 0 0 0 0 0 0 0 0 0 0 0 0 0 0 0 0 0 0 0 0 0 0 0 0 0 0 0 0
0 0 0 0 0 0 0 0 0 0 0 0 0 0 0 0 0 0 0 0 0 0 0 0 0 0 0 0 0 0 0 0 0 0 0 0 0 0 0 0 0 0 0
0 0 0 0 0 0 0 0 0 0 0 0 0 0 0 0 0 0 0 0 0 0 0 0 0 0 0 0 0 0 0 0 0 0 0 0 0 0 0 0 0 0 0
0 0 0 0 0 0 0 0 0 0 0 0 0 0 0 0 0 0 0 0 0 0 0 0 0 0 0 0 0 0 0 0 0 0 0 0 0 0 0 0 0 0 0
0 0 0 0 0 0 0 0 0 0 0 0 0 0 0 0 0 0 0 0 0 0 0 0 0 0 0 0 0 0 0 0 0 0 0 0 0 0 0 0 0 0 0
0 0 0 0 0 0 0 0 0 0 0 0 0 0 0 0 0 0 0 0 0 0 0 0 0 0 0 0 0 0 0 0 0 0 0 0 0 0 0 0 0 0 0
0 0 0 0 0 0 0 0 0 0 0 0 0 0 0 0 0 0 0 0 0 0 0 0 0 0 0 0 0 0 0 0 0 0 0 0 0 0 0 0 0 0 0
0 0 0 0 0 0 0 0 0 0 0 0 0 0 0 0 0 0 0 0 0 0 0 0 0 0 0 0 0 0 0 0 0 0 0 0 0 0 0 0 0 0 0
0 0 0 0 0 0 0 0 0 0 0 0 0 0 0 0 0 0 0 0 0 0 0 0 0 0 0 0 0 0 0 0 0 0 0 0 0 0 0 0 0 0 0
0 0 0 0 0 0 0 0 0 0 0 0 0 0 0 0 0 0 0 0 0 0 0 0 0 0 0 0 0 0 0 0 0 0 0 0 0 0 0 0 0 0 0
0 0 0 0 0 0 0 0 0 0 0 0 0 0 0 0 0 0 0 0 0 0 0 0 0 0 0 0 0 0 0 0 0 0 0 0 0 0 0 0 0 0 0
0 0 0 0 0 0 0 0 0 0 0 0 0 0 0 0 0 0 0 0 0 0 0 0 0 0 0 0 0 0 0 0 0 0 0 0 0 0 0 0 0 0 0
0 0 0 0 0 0 0 0 0 0 0 0 0 0 0 0 0 0 0 0 0 0 0 0 0 0 0 0 0 0 0 0 0 0 0 0 0 0 0 0 0 0 0
0 0 0 0 0 0 0 0 0 0 0 0 0 0 0 0 0 0 0 0 0 0 0 0 0 0 0 0 0 0 0 0 0 0 0 0 0 0 0 0 0 0 0
0 0 0 0 0 0 0 0 0 0 0 0 0 0 0 0 0 0 0 0 0 0 0 0 0 0 0 0 0 0 0 0 0 0 0 0 0 0 0 0 0 0 0
0 0 0 0 0 0 0 0 0 0 0 0 0 0 0 0 0 0 0 0 0 0 0 0 0 0 0 0 0 0 0 0 0 0 0 0 0 0 0 0 0 0 0
Wind_Speed
4 4 3 3 3 3 2 2 2 2 1 2 1 2 2 2 3 4 3 7 9 10 12 12 13 13 14 15 16 17 18 19 19 19 20 20 20 20 21 21 21 21 22
4 4 3 3 3 3 2 2 2 1 1 1 1 1 1 1 3 4 4 5 9 11 12 13 13 14 14 15 16 17 18 19 19 19 19 19 20 20 20 21 21 21 22
5 5 4 3 3 3 3 1 1 1 1 1 1 1 1 1 2 3 4 4 5 10 12 13 13 14 15 16 16 17 17 18 18 18 19 19 19 20 20 21 21 22 22
6 5 4 4 4 3 3 2 2 1 1 1 0 0 1 1 3 3 4 4 4 5 8 13 14 15 15 16 16 17 17 18 18 18 18 19 19 19 20 20 21 21 22
6 5 4 4 5 4 3 3 2 1 1 0 0 0 1 2 3 4 4 5 5 5 5 10 13 15 16 16 16 16 17 17 17 18 18 18 19 19 19 20 20 21 21
7 6 4 5 5 4 3 3 3 2 1 1 0 0 1 2 3 4 5 4 4 5 5 5 5 9 15 16 16 16 16 16 16 17 17 17 18 18 19 19 20 21 21
9 7 5 5 5 5 5 5 4 3 2 2 1 0 0 2 4 4 4 4 5 5 5 5 4 4 5 13 15 15 15 15 16 16 16 17 17 18 18 19 20 20 21
10 8 7 6 6 5 6 6 5 3 3 3 3 2 1 1 1 3 4 4 5 4 5 6 5 5 5 4 9 14 14 14 15 15 15 16 16 17 18 19 20 20 21
10 9 9 7 7 7 6 7 6 6 4 4 3 3 3 3 2 2 4 4 5 4 4 5 5 5 6 4 4 9 12 13 13 14 14 15 16 17 18 19 19 20 21
11 11 10 9 8 7 7 7 7 6 5 4 3 3 2 2 3 3 2 3 4 5 5 4 5 5 5 4 5 8 10 11 12 13 14 14 16 17 17 18 19 20 21
11 11 11 10 10 8 9 8 8 7 6 5 4 3 2 1 2 3 3 3 2 3 4 5 4 3 4 4 3 5 8 9 10 11 13 14 15 16 17 18 19 20 21
10 12 12 11 11 9 9 9 9 9 8 7 5 5 5 4 4 4 4 3 3 3 3 3 4 3 3 3 3 5 7 8 10 10 12 13 14 15 16 17 18 20 20
10 14 13 12 10 10 10 9 9 9 9 8 7 5 5 4 4 4 4 3 3 3 3 2 3 3 3 3 1 4 5 7 9 10 11 12 13 14 15 16 18 19 20
11 11 14 13 12 11 10 10 9 9 8 9 8 7 5 4 4 4 5 5 3 2 3 4 2 3 3 2 2 3 2 6 8 9 10 11 12 13 14 15 17 18 19
9 12 13 13 12 12 11 11 8 9 9 8 8 7 5 4 3 3 3 4 6 5 4 4 3 3 3 2 1 1 1 5 6 8 9 10 11 12 14 14 16 17 19
11 12 13 13 12 12 12 11 8 8 9 7 6 8 6 4 4 3 3 3 3 5 4 3 3 3 3 2 1 1 1 4 5 7 8 9 11 12 13 13 15 17 18
11 13 13 12 12 12 12 11 10 10 10 8 7 9 8 7 6 4 4 4 3 3 4 2 2 3 3 2 1 0 1 1 2 6 7 9 10 11 12 13 14 16 17
11 11 11 12 12 12 12 13 12 12 12 12 11 10 9 7 8 6 5 5 4 3 4 4 2 2 2 2 1 1 1 1 2 6 7 8 9 10 11 12 13 15 16
10 10 11 12 12 12 12 12 12 12 13 13 13 13 12 11 9 6 6 6 4 3 3 4 3 2 1 1 0 1 2 2 3 4 6 7 8 10 10 12 13 14 15
10 10 11 11 11 11 12 11 11 10 10 10 10 11 12 13 12 11 8 7 6 5 4 4 3 2 1 1 1 1 2 2 3 3 3 5 8 9 10 11 11 12 14
7 8 9 9 9 9 10 11 11 11 11 10 9 9 10 11 12 11 9 9 9 6 5 4 3 2 2 2 2 1 1 2 3 1 1 3 4 4 4 7 9 11 14
4 5 7 8 9 8 11 15 13 11 11 12 11 8 8 9 12 13 13 13 12 9 8 5 4 4 4 3 2 2 1 1 3 1 2 4 3 3 3 2 8 11 13
4 5 6 7 8 8 13 15 14 10 10 10 11 11 8 7 9 9 11 12 9 10 9 7 6 5 4 4 4 3 2 2 3 1 2 4 2 3 3 5 10 10 12
4 4 5 6 5 7 13 15 14 9 8 8 9 10 11 11 10 11 10 8 6 5 6 4 4 3 3 4 4 3 2 2 3 3 2 3 3 3 4 4 7 8 11
3 3 3 5 6 6 12 15 14 7 7 7 7 8 9 11 16 17 12 9 7 4 6 6 6 5 6 7 6 3 2 1 2 2 1 1 2 3 3 3 3 7 10
3 3 3 3 5 5 11 15 15 7 8 7 6 6 9 12 17 18 11 10 10 7 6 5 5 5 4 5 7 5 4 3 2 3 1 1 1 2 4 3 2 3 4
Wind_Direction
155 150 153 161 165 151 169 164 140 138 118 86 69 51 40 53 77 87 85 69 62 57 56 54 52 49 47 46 43 42 41 40 38 35 31 28 24 21 18 15 12 9 7
157 151 152 168 162 164 162 159 144 151 135 124 109 85 41 50 92 106 110 83 71 67 62 58 54 52 51 49 47 45 41 39 37 34 30 27 23 20 17 13 10 8 6
162 161 161 174 172 154 143 154 158 158 166 193 200 154 109 69 79 99 112 111 91 72 68 63 60 57 54 52 49 45 42 39 36 33 29 25 22 19 17 13 11 8 6
168 167 165 175 170 158 168 175 186 194 207 212 107 82 105 92 93 89 88 96 103 93 75 72 65 61 57 52 48 45 42 39 35 30 26 23 20 18 15 12 10 7 5
178 171 173 175 168 166 178 173 195 190 182 162 102 50 100 113 116 105 97 90 91 100 98 84 75 66 59 52 47 43 40 37 33 29 25 21 19 17 14 12 10 8 6
184 180 177 176 168 168 181 178 192 183 170 169 139 197 160 142 125 119 113 102 96 95 95 95 85 72 64 54 46 41 37 35 32 28 24 21 18 16 14 12 10 7 5
185 186 179 180 176 178 187 185 180 185 201 171 129 153 100 121 122 126 121 113 104 96 88 82 76 75 67 55 44 39 35 33 30 27 24 21 18 15 13 11 10 7 4
185 190 187 185 183 184 190 189 177 177 188 176 175 164 161 126 132 138 126 125 124 110 100 93 84 77 75 63 41 40 34 31 29 26 23 20 17 15 13 11 9 6 3
190 189 193 190 188 187 192 193 184 179 188 199 194 179 182 192 158 156 148 139 135 124 116 109 98 91 88 79 49 34 35 31 27 24 22 19 17 14 11 10 7 5 2
197 194 194 195 193 192 195 194 192 188 180 185 196 205 192 169 155 162 163 143 136 134 132 123 112 105 101 95 67 42 35 32 28 25 21 18 15 12 10 8 6 4 2
201 198 197 198 198 197 198 194 192 193 190 185 175 173 188 204 180 159 177 173 151 146 138 131 126 117 109 104 85 40 34 31 28 25 21 17 14 11 9 7 4 2 360
202 201 199 201 201 199 198 198 195 195 197 194 184 172 168 173 187 180 178 173 171 163 140 132 129 126 119 108 79 44 32 27 25 23 19 15 12 10 7 4 2 1 358
202 203 200 202 201 201 198 194 193 196 197 195 191 189 187 184 167 167 167 164 157 154 150 143 141 138 125 114 93 46 31 24 20 18 16 12 9 7 4 2 1 359 357
203 197 200 203 202 199 196 192 195 197 194 196 193 185 179 181 170 166 164 154 154 170 170 172 151 146 135 125 74 47 25 19 12 11 10 8 4 3 1 359 359 357 355
196 195 197 200 201 198 196 192 197 194 189 191 186 181 173 169 162 161 152 154 158 176 198 175 159 159 144 133 82 54 2 3 3 3 2 1 359 357 357 355 356 355 354
194 192 196 198 198 197 194 192 187 183 181 182 176 170 169 160 154 153 151 148 147 156 170 165 150 148 141 138 112 74 340 351 351 351 352 352 353 353 353 352 353 353 352
195 193 194 194 195 194 190 189 187 178 180 177 171 172 172 160 160 160 149 147 145 138 150 141 109 129 137 145 138 318 315 326 321 334 337 341 345 347 348 349 350 351 351
197 193 189 191 193 193 189 188 184 182 181 179 178 171 171 164 161 160 157 155 151 141 142 152 138 141 153 161 167 294 305 306 299 317 324 330 336 340 342 345 347 348 349
194 190 188 191 192 192 191 191 186 185 185 182 178 176 173 166 166 164 159 154 147 133 119 136 147 137 141 155 133 295 287 289 299 306 314 323 331 334 334 339 343 345 345
191 191 191 192 191 191 191 187 182 182 181 178 176 175 173 173 171 167 163 156 145 136 129 135 145 157 170 172 152 241 293 301 299 299 309 318 322 322 322 332 337 338 343
191 187 187 186 185 186 188 183 177 177 174 169 166 170 172 170 166 164 162 159 155 152 149 154 164 165 179 176 191 186 248 303 295 284 323 305 307 301 307 322 327 332 342
172 173 182 181 184 190 186 183 175 174 172 169 166 162 156 156 159 157 156 160 164 163 167 167 177 190 194 183 166 172 199 318 297 325 349 297 285 283 285 289 318 331 341
168 173 179 182 188 190 180 179 175 168 170 171 166 161 158 157 151 147 151 156 168 178 176 169 179 188 180 177 167 180 201 222 248 282 345 287 280 278 284 305 317 328 341
170 175 177 180 180 184 179 176 167 158 158 162 166 165 161 160 162 154 149 152 159 172 178 175 168 164 160 153 159 170 187 243 273 258 204 267 288 283 296 300 304 327 341
164 166 169 173 175 177 176 170 159 151 151 154 157 160 162 163 169 164 157 160 165 177 188 179 171 172 174 170 162 143 160 189 266 256 158 254 290 303 299 291 301 327 338
156 147 154 165 170 170 174 170 162 153 153 153 152 158 168 170 172 171 167 168 178 180 166 168 176 184 179 189 193 181 177 185 209 252 189 202 289 334 315 296 301 310 325